Temp_Advection
nan nan nan nan nan nan nan nan nan nan nan nan nan nan nan nan nan nan nan nan nan nan nan nan nan nan nan nan nan nan nan nan nan nan nan nan nan nan
nan -0 -0 0 0 0 0 1 1 1 -1 -2 -0 -0 -0 -0 -0 0 0 0 0 1 0 0 0 0 0 0 0 0 0 0 1 1 0 0 0 nan
nan 0 0 0 -0 -0 0 0 1 1 -1 -2 -0 0 -0 -0 -0 -1 -1 -0 -0 0 0 0 0 0 0 0 -0 1 1 1 0 1 1 1 1 nan
nan 0 -0 0 0 0 0 -0 -0 1 1 -1 -1 -1 -1 -0 0 0 -1 -1 -1 -0 0 -0 -0 0 0 1 0 -0 0 1 1 1 3 3 1 nan
nan 1 0 0 0 -0 0 0 -0 -0 0 -0 -0 -1 -1 -1 -1 -0 -0 -1 -1 -0 -0 0 -0 0 0 0 0 0 -0 -0 1 1 0 1 2 nan
nan 0 0 -0 -0 -0 0 1 0 -0 0 -0 0 -0 -1 -1 -1 -1 -2 -2 -2 -1 -1 -0 1 0 0 -0 -0 1 1 -0 -0 0 0 0 1 nan
nan -0 -0 1 0 -0 0 0 0 0 0 1 -0 0 0 0 0 -0 -1 -1 -2 -2 -2 -1 0 0 -0 0 -0 -0 0 0 0 -0 -0 1 1 nan
nan 0 1 1 1 0 -0 0 1 0 -0 0 -0 -1 -0 -0 -0 0 -0 -0 -2 -3 -2 -2 -1 -0 0 0 -0 -1 0 -0 -0 -0 -1 -0 0 nan
nan 0 1 1 0 -0 -0 0 -0 0 1 1 0 0 -0 -1 -1 -1 -0 0 -1 -1 -2 -3 -2 -2 -0 0 -0 -0 0 0 -1 -1 -1 -1 -0 nan
nan 0 0 0 -0 0 0 0 0 -0 -0 0 0 -0 0 -0 -0 -0 -0 -1 -2 -0 0 -3 -3 -3 -1 -0 -1 -0 -0 -0 -1 -1 -1 -1 -0 nan
nan 0 0 -0 -1 -0 -0 -0 -0 0 0 0 0 0 -0 -0 -0 -0 -1 -2 -1 -2 -1 -1 -2 -5 -6 -1 -1 -1 -1 -1 -1 -1 -1 -0 -0 nan
nan 0 -0 -0 -0 -0 -0 -0 -1 -1 -0 -0 0 0 -0 -0 -0 1 1 -1 -2 -2 -1 -1 -1 -2 -3 -3 -1 -1 -1 -2 -2 -1 -1 -0 -0 nan
nan 0 -0 -0 -0 -0 -0 -0 -1 -1 -1 -1 -0 -0 0 0 0 1 1 1 0 -0 -1 -1 -1 -1 -1 -2 -1 -1 -1 -1 -1 -1 -1 -0 0 nan
nan 0 -0 -0 -0 -0 -0 -0 -0 -1 -1 -1 -1 -1 -1 -0 0 0 1 1 1 0 -0 0 -0 -0 -1 -1 -1 -1 -1 -1 -1 -2 -1 -0 0 nan
nan -0 -0 -0 -0 -0 -0 -0 -0 -1 -1 -1 -1 -1 -1 -1 -1 -1 -0 0 1 1 1 0 -0 -1 -1 -1 -1 -1 -1 -2 -1 -0 -0 -1 -1 nan
nan -0 -0 -0 -0 -0 -0 -0 -0 -0 -0 -1 -1 -1 -1 -1 -0 -1 -1 -1 -1 -1 1 1 -0 -1 -1 -1 -1 -2 -1 -1 -1 0 -0 -0 -0 nan
nan -0 -0 -0 -0 -0 -0 -0 -0 -0 -0 -0 -1 -1 -1 -1 -1 -0 -1 -1 -1 -2 -2 -0 0 -0 -0 -0 -1 -1 -1 -1 -1 -0 -0 -1 -0 nan
nan -0 -0 -0 -0 -0 -0 -0 -0 -0 -1 -1 -1 -1 -1 -1 -1 -1 -0 -0 -0 -0 -1 -1 -1 -1 -2 -1 -0 -1 -1 -1 -1 -0 -0 -0 -1 nan
nan -0 -0 -0 -0 -0 -0 -1 -0 -0 -0 -0 -0 -0 -0 -0 -1 -1 -1 -1 -0 -1 -1 -1 -0 -0 -1 -2 -2 -1 -0 -1 -1 -1 -0 -0 -0 nan
nan -0 -0 -0 -0 -0 -0 -1 -1 -0 -0 -0 -0 -0 -0 -0 -0 -1 -1 -0 -0 -0 -1 -1 -0 0 -0 -1 -1 -2 -0 0 -0 -1 -0 -0 -0 nan
nan -0 -0 -0 -0 -0 -0 -0 -1 -1 -0 -0 -1 -0 -0 -0 -0 -0 -0 -0 -0 -0 -1 -1 -1 -0 -0 -1 -1 -1 -1 0 0 -0 -0 -0 -0 nan
nan -0 -0 -0 -0 -0 -0 -0 -1 -1 -1 -1 -1 -0 -0 -0 -0 -0 -0 -0 -0 -1 -1 -1 -1 -1 -0 -0 -1 -1 -1 -0 0 0 0 0 -0 nan
nan nan nan nan nan nan nan nan nan nan nan nan nan nan nan nan nan nan nan nan nan nan nan nan nan nan nan nan nan nan nan nan nan nan nan nan nan nan
Wind_Speed
15 16 18 16 18 19 22 24 28 31 36 36 35 30 28 30 31 32 31 29 29 28 28 29 29 29 31 32 33 34 35 36 37 38 39 41 43 43
21 22 21 22 21 26 27 29 32 34 37 39 40 38 36 35 34 35 35 34 33 33 33 34 33 34 35 36 36 37 39 41 42 42 43 43 45 46
26 28 29 29 30 32 32 34 35 36 40 41 43 44 43 38 36 36 36 37 35 34 35 35 36 37 39 40 39 41 43 45 45 47 47 46 45 47
31 32 32 32 34 34 35 37 38 39 41 43 41 41 41 38 39 39 38 35 35 35 34 35 36 39 39 39 40 40 42 42 46 46 45 44 45 45
36 37 37 37 38 38 39 38 36 35 37 34 39 39 42 39 43 46 39 40 40 38 37 34 37 41 42 40 39 41 40 44 44 43 41 37 38 36
34 35 34 36 36 35 33 35 34 34 34 37 40 39 35 36 36 41 44 46 44 43 40 40 39 41 38 36 39 40 40 39 38 39 38 35 34 34
33 38 39 37 39 38 38 34 34 33 35 38 39 36 36 35 29 24 29 32 38 38 38 39 45 41 39 40 38 40 37 37 35 32 32 34 32 33
32 36 35 35 30 32 32 32 30 32 32 31 33 34 35 35 36 35 35 35 41 39 41 44 39 44 41 40 38 37 37 34 33 31 30 32 30 31
28 29 31 30 29 30 29 30 29 30 32 31 31 30 32 33 34 35 35 35 38 39 40 48 43 44 43 42 39 40 39 37 34 32 31 30 29 29
24 24 25 25 26 27 26 24 23 24 25 26 26 27 28 29 29 30 31 33 36 37 33 41 40 41 38 33 32 31 28 26 23 23 24 25 25 25
19 19 19 19 21 23 23 23 23 22 22 23 24 24 24 25 25 26 26 29 34 33 29 23 28 36 42 39 27 19 9 16 28 29 30 30 29 28
17 17 18 18 19 19 20 20 18 18 19 18 18 19 20 21 22 20 21 22 23 27 16 26 34 32 27 34 19 35 37 32 31 30 30 30 29 29
14 14 14 14 14 14 16 17 18 19 18 18 18 19 20 19 19 19 17 18 21 24 28 24 30 31 29 38 42 42 39 35 33 32 31 31 29 25
10 10 11 11 11 12 14 15 16 17 18 18 19 20 20 21 21 22 22 22 20 23 24 21 27 27 30 37 41 39 39 36 34 32 30 27 24 20
7 8 9 10 11 12 13 16 17 18 20 20 21 21 22 23 23 24 25 25 23 22 22 22 21 24 25 30 36 38 38 38 32 26 25 25 23 19
6 8 9 10 12 13 14 16 17 19 21 22 23 23 23 22 22 22 25 26 27 27 23 19 22 23 26 28 31 35 33 33 33 29 27 25 20 20
6 7 9 10 11 12 14 15 17 19 20 22 23 24 25 25 25 24 24 25 24 27 28 25 24 27 26 27 30 28 27 27 26 24 22 22 20 19
7 8 9 11 13 15 17 18 19 20 21 22 23 24 25 25 27 26 25 25 26 25 25 24 26 31 31 28 23 26 27 25 23 20 19 20 20 17
8 10 12 14 15 17 18 19 20 21 22 22 23 23 24 25 26 27 27 27 26 25 27 27 27 26 29 33 32 24 28 30 27 23 19 18 19 16
10 11 13 15 16 18 19 21 22 23 23 24 24 24 25 26 26 26 25 26 25 28 32 30 25 21 24 31 35 33 25 26 25 23 19 17 17 15
11 12 14 17 18 20 21 21 22 23 23 23 23 23 22 23 25 25 26 25 27 28 30 28 24 21 23 26 30 31 26 20 20 19 17 17 17 16
13 15 16 18 19 21 21 22 22 22 22 23 24 24 23 23 24 24 24 26 27 28 29 29 26 24 23 23 28 28 25 20 15 15 14 13 14 11
15 16 17 18 19 20 22 23 23 24 24 24 25 24 24 24 22 22 25 26 27 30 30 31 27 24 22 22 25 26 24 20 16 12 11 12 12 11
Wind_Direction
240 247 254 274 279 280 277 278 281 285 293 302 303 313 311 310 307 303 301 300 298 295 297 298 297 297 295 292 290 290 289 289 287 288 288 289 292 293
244 252 260 268 271 275 276 281 282 285 284 298 301 302 300 300 301 300 299 296 291 289 290 289 285 284 286 285 284 285 286 286 287 285 286 289 288 289
254 259 264 271 277 279 279 281 283 285 285 291 294 301 302 305 303 298 293 291 288 289 292 289 287 286 283 286 287 286 284 285 285 284 284 285 286 286
265 268 271 273 274 276 279 280 281 282 285 287 294 297 301 305 303 306 304 299 297 293 293 290 291 294 291 289 288 289 290 290 291 286 282 286 284 288
262 268 271 272 274 275 278 281 284 288 291 290 294 298 300 301 299 301 299 299 301 300 296 291 295 292 291 291 292 291 291 293 290 293 294 300 299 296
267 265 269 273 275 276 277 282 283 281 286 286 292 295 297 305 301 304 300 303 303 302 298 295 298 299 296 300 298 298 295 293 292 292 294 295 293 292
273 275 275 276 269 277 276 272 273 271 280 276 278 280 287 286 289 292 288 290 294 297 296 295 298 297 296 299 296 296 293 293 292 291 292 293 292 291
272 266 265 269 265 261 264 275 276 285 288 290 287 292 293 293 291 291 289 291 297 295 292 292 290 290 292 294 296 293 295 296 297 298 298 295 295 290
266 265 267 268 274 276 281 280 283 284 285 285 288 289 290 291 293 294 293 292 291 294 294 292 294 293 295 296 296 294 296 297 298 297 295 291 292 291
264 264 267 269 274 278 280 284 286 291 291 290 290 292 292 293 294 295 296 294 292 293 297 294 299 299 301 298 298 303 309 310 310 309 305 300 296 292
270 269 270 274 278 284 287 291 291 289 289 290 291 295 297 299 302 301 300 300 303 306 315 304 309 307 306 312 315 318 315 306 307 306 303 302 301 298
269 272 277 281 286 288 292 296 298 297 297 298 300 303 305 307 310 309 307 310 313 316 296 304 306 316 316 310 302 303 311 311 308 303 300 299 298 294
273 275 280 286 293 298 303 306 308 313 314 314 314 313 310 309 312 314 312 308 307 296 299 306 303 307 304 305 306 311 313 314 312 309 305 302 298 292
273 279 288 299 305 309 311 312 315 317 319 319 318 317 316 317 315 315 311 304 302 304 309 300 296 301 302 301 303 308 309 309 311 310 305 299 295 287
282 294 304 310 314 320 320 321 322 321 322 321 321 321 321 320 318 314 312 311 312 310 316 324 303 300 301 297 299 303 306 308 310 307 305 301 298 286
304 312 316 319 322 324 325 323 320 320 322 322 321 321 319 318 319 320 318 317 317 317 319 325 320 314 305 303 301 300 306 304 309 308 306 302 295 287
310 313 315 315 313 313 314 316 316 317 319 321 322 322 322 323 322 322 323 322 320 318 320 322 321 320 311 311 312 312 315 311 311 314 307 301 295 289
307 310 313 316 317 318 318 319 318 319 320 321 322 322 323 323 321 322 323 325 322 320 320 320 321 319 318 311 316 319 318 318 319 313 307 301 294 288
309 313 316 317 317 317 319 320 321 322 322 322 322 321 320 320 321 322 323 323 321 321 315 318 317 317 320 319 319 319 315 316 316 313 309 301 295 289
312 314 316 317 317 318 318 318 319 320 321 321 320 320 320 318 320 321 322 322 322 316 317 321 324 326 318 314 314 309 313 311 311 309 304 302 294 283
309 313 314 315 315 315 314 314 315 316 318 318 317 316 318 317 319 320 321 324 320 318 318 320 321 316 306 306 311 312 312 308 305 302 295 295 294 278
308 311 312 312 311 310 311 312 313 316 317 318 319 321 321 321 321 325 330 329 329 325 321 319 319 319 313 310 313 314 313 310 306 298 279 276 276 271
301 305 308 309 310 311 312 313 316 319 319 319 319 320 320 319 322 324 326 325 325 323 327 324 321 320 316 313 315 314 312 310 308 300 281 269 266 261
Height
1563 1564 1565 1567 1567 1567 1566 1565 1564 1560 1556 1557 1557 1558 1558 1557 1555 1553 1552 1550 1548 1546 1544 1541 1539 1537 1535 1533 1531 1528 1526 1523 1520 1517 1514 1511 1508 1505
1558 1559 1560 1561 1561 1561 1560 1560 1559 1557 1551 1551 1549 1549 1550 1550 1549 1546 1544 1541 1539 1537 1535 1533 1531 1529 1526 1524 1521 1519 1517 1514 1511 1508 1504 1502 1498 1494
1552 1553 1555 1556 1555 1555 1554 1553 1552 1550 1545 1544 1543 1540 1538 1538 1538 1537 1535 1533 1530 1529 1527 1525 1522 1519 1517 1514 1512 1509 1505 1503 1499 1496 1493 1490 1487 1484
1548 1548 1548 1549 1548 1548 1546 1545 1544 1543 1539 1534 1535 1534 1531 1530 1528 1526 1525 1524 1521 1520 1517 1515 1512 1510 1507 1505 1502 1499 1496 1492 1489 1485 1481 1478 1477 1473
1540 1540 1541 1540 1539 1539 1538 1536 1535 1534 1531 1526 1524 1524 1522 1522 1520 1516 1515 1514 1511 1510 1508 1505 1502 1499 1498 1494 1491 1488 1485 1483 1479 1474 1471 1467 1465 1462
1527 1531 1532 1532 1530 1529 1528 1528 1527 1525 1523 1519 1516 1514 1513 1512 1510 1507 1503 1503 1498 1498 1497 1494 1492 1490 1488 1484 1482 1477 1474 1470 1468 1465 1462 1459 1456 1454
1523 1523 1523 1521 1520 1521 1521 1518 1518 1517 1515 1513 1510 1507 1506 1505 1502 1499 1495 1493 1491 1489 1487 1486 1483 1480 1480 1476 1471 1467 1464 1462 1458 1455 1453 1450 1447 1445
1514 1515 1514 1512 1513 1511 1513 1510 1510 1509 1507 1505 1504 1499 1497 1498 1496 1493 1491 1486 1482 1480 1477 1472 1473 1469 1469 1465 1462 1457 1454 1451 1449 1446 1444 1443 1440 1438
1505 1506 1507 1506 1505 1505 1502 1502 1503 1500 1499 1497 1495 1493 1491 1489 1487 1483 1482 1479 1476 1471 1469 1458 1460 1457 1457 1453 1451 1448 1445 1442 1439 1438 1437 1435 1431 1429
1498 1499 1500 1499 1498 1498 1497 1496 1496 1494 1492 1490 1488 1486 1485 1483 1480 1477 1473 1469 1466 1463 1462 1451 1450 1447 1445 1443 1441 1439 1437 1436 1433 1430 1428 1426 1423 1421
1492 1493 1493 1494 1492 1491 1490 1489 1489 1488 1486 1484 1483 1480 1478 1475 1473 1470 1467 1463 1456 1454 1454 1450 1444 1438 1434 1432 1432 1432 1431 1430 1427 1425 1421 1419 1417 1414
1487 1487 1487 1487 1486 1485 1484 1483 1482 1482 1481 1480 1478 1476 1473 1470 1468 1466 1463 1458 1456 1449 1450 1448 1442 1439 1427 1423 1424 1425 1423 1424 1421 1419 1416 1413 1410 1407
1481 1481 1481 1481 1480 1479 1479 1478 1477 1476 1475 1473 1472 1470 1468 1465 1463 1461 1459 1456 1452 1449 1446 1444 1436 1435 1433 1421 1414 1414 1415 1414 1413 1411 1409 1406 1403 1401
1477 1477 1477 1476 1476 1475 1475 1475 1474 1472 1470 1469 1467 1465 1463 1461 1458 1456 1453 1450 1448 1444 1441 1439 1433 1431 1427 1419 1412 1408 1408 1407 1405 1403 1401 1398 1396 1394
1474 1473 1473 1473 1472 1471 1471 1471 1470 1468 1466 1464 1463 1460 1458 1455 1453 1450 1448 1443 1440 1438 1435 1432 1429 1425 1422 1416 1409 1405 1401 1398 1399 1396 1394 1392 1390 1389
1471 1470 1470 1470 1470 1469 1469 1468 1467 1464 1461 1459 1458 1455 1452 1450 1448 1445 1441 1437 1432 1430 1430 1428 1424 1420 1415 1411 1406 1400 1399 1395 1392 1390 1387 1385 1384 1383
1468 1468 1468 1468 1467 1466 1466 1465 1463 1460 1458 1456 1453 1450 1447 1444 1442 1439 1436 1432 1428 1425 1422 1420 1419 1415 1410 1405 1399 1396 1392 1389 1387 1383 1381 1378 1377 1377
1465 1465 1465 1464 1463 1462 1461 1460 1458 1456 1454 1452 1449 1445 1442 1438 1436 1434 1431 1428 1423 1421 1417 1415 1411 1405 1400 1397 1396 1390 1388 1384 1382 1379 1376 1374 1373 1373
1462 1462 1461 1460 1460 1459 1457 1456 1454 1452 1449 1447 1444 1440 1437 1434 1431 1428 1425 1422 1418 1415 1412 1410 1407 1403 1396 1391 1390 1389 1383 1379 1377 1374 1373 1370 1369 1369
1458 1458 1457 1457 1456 1454 1453 1451 1449 1447 1444 1441 1438 1435 1432 1429 1426 1424 1421 1417 1413 1410 1406 1404 1401 1399 1395 1390 1383 1380 1381 1376 1373 1369 1367 1366 1365 1364
1455 1455 1454 1453 1451 1450 1448 1446 1444 1442 1439 1437 1434 1431 1428 1425 1422 1419 1416 1413 1408 1404 1399 1397 1396 1394 1390 1386 1379 1375 1373 1372 1368 1366 1364 1363 1361 1361
1451 1450 1450 1449 1447 1446 1444 1441 1439 1437 1434 1431 1428 1425 1423 1421 1417 1414 1410 1406 1403 1399 1394 1391 1389 1387 1383 1379 1375 1370 1367 1365 1364 1361 1360 1360 1360 1359
1447 1446 1445 1444 1443 1441 1438 1436 1433 1431 1428 1425 1422 1420 1418 1414 1412 1409 1406 1402 1398 1394 1390 1385 1381 1380 1377 1374 1371 1366 1363 1360 1358 1357 1356 1356 1356 1356